2022-087A (53299 NORAD) Tracking and Keplerian Element Data

This shows tracking and keplerian element data for the satellite.

Feedback or suggestion? Click here.




ElementValue
Catalog53299
Name2022-087A
Epoch Orbit1781
Epoch Day325.28563366
Epoch Year2022
RAAN37.7585
Inclination97.3928
Eccentricity0.0013834
Argument of Perigee229.6576
Mean Anonmoly201.371
Mean Motion15.22454503
Decay Rate5.63E-05
L11 53299U 22087A 22325.28563366 .00005630 00000+0 24574-3 0 9998
L22 53299 97.3928 37.7585 0013834 229.6576 201.3710 15.22454503 17811



Live tracking and technical data element details for 2022-087A (NORAD 53299). 2022-087A can be tracked NOW for your location showing map with azimuth and elevation plus other details from your city location.







IsCatalogInMostPopularTable: catalog: 53299, numindb: 7
Update: records affected: 1



GetName: 53299 2022-087A

Hit Count: updated at: Thu, 08 Dec 2022 09:30:38 GMT